Location: Cahas Mountain Overlook
(37.0833°N, 80.1000°W)
Time: 06:36:37
(UTC-05:00)

Hubble Space Telescope - Visible Passes

Search period start: 16 January 2026 00:00
Search period end: 26 January 2026 00:00
Orbit: 479 x 481 km, 28.5° (Epoch: 16 January)

Date Brightness Start Highest point End Pass type
(mag) Time Alt. Az. Time Alt. Az. Time Alt. Az.
22 Jan 3.0 19:08:12 10° S 19:09:25 11° SSE 19:09:47 11° SSE visible
23 Jan 3.0 18:38:23 10° S 18:39:38 11° SSE 18:40:53 10° SE visible
24 Jan 3.1 18:08:34 10° S 18:09:51 11° SSE 18:11:07 10° SE visible
24 Jan 2.8 19:46:13 10° SW 19:47:51 18° SSW 19:47:51 18° SSW visible
25 Jan 2.3 19:16:26 10° SW 19:19:17 21° S 19:19:48 20° SSE visible
